Weather in Vladimirovka

Russia / Tyva Republic     50°59′54″N   95°18′27″E
temp.,
°C
wind,
m/s
gust,
m/s
humid.,
%
clouds,
%
prec.,
mm/h
press.,
hPa
HPBL,
m
5 march, fri
fri501:00−15ese12810 0.0 103423
04:00−16ese12820 0.0 103425
07:00−16e12819 0.0 103424
10:00−9ne137123 0.0 1031194
13:00−4wnw136647 0.0 1028478
16:00−2s3754100 0.0 1025867
19:00−10wnw1290100 0.0 102843
22:00−12nnw1289100 0.0 103026
6 march, sat
sat601:00−12ne128598 0.0 103424
04:00−14e118553 0.0 103621
07:00−15ese128527 0.0 103723
10:00−7ene12710 0.0 1034236
13:00−1n12679 0.0 1031381
16:00−1w136551 0.0 1027473
19:00−9ssw118430 0.0 102825
22:00−11se11830 0.0 102827
7 march, sun
sun701:00−12ese11851 0.0 102825
04:00−13e11849 0.0 102724
07:00−14ne118433 0.0 102922
10:00−8nne117253 0.0 1027176
13:00−4n227075 0.0 1026335
16:00−3nnw227675 0.0 1025293
19:00−8nw119087 0.0 102723
22:00−10se1186100 0.0 102923
8 march, mon
mon801:00−13s018765 0.0 103121
04:00−13e11838 0.0 103121
07:00−14e118527 0.0 103221
10:00−6nne12730 0.0 1030193
13:00−2n22730 0.0 1027310
16:00−1n12790 0.0 1025267
19:00−7ssw01852 0.0 102624
22:00−9se118013 0.0 102725
9 march, tue
tue901:00−11e118315 0.0 102725
04:00−12nnw018542 0.0 102722
07:00−11ne118655 0.0 103021
10:00−7nnw1075100 0.0 1031199
13:00−2n216799 0.0 1029382
16:00−2nnw117222 0.0 1028375
19:00−8n018841 0.0 103022
22:00−9e01880 0.0 103121